Home   Weather   Pudong   Past weeks
Flag for China

Past Weather in Pudong, Shanghai Municipality, China — Yesterday and Last 2 Weeks

Now
90 °F

Clear.


Feels Like: 105 °F
Forecast: 96 / 82 °F
Wind: 10 mph from Southeast

Location: Shanghai Hongqiao Airport

Current Time: Jul 22, 2019 at 7:59:48 pm

Latest Report: Jul 22, 2019 at 7:00 pm


Visibility: 10 mi

Pressure: 29.56 "Hg

Humidity: 71%

Dew Point: 79 °F

Location of PudongLocation

Past Weather in Pudong — Graph

°F

Pudong Temperature Yesterday

Maximum temperature yesterday: 97 °F (at 12:30 pm)
Minimum temperature yesterday: 81 °F (at 2:00 am)
Average temperature yesterday: 88 °F

High & Low Weather Summary for the Past Weeks

 TemperatureHumidityPressure
High97 °F (Jul 21, 12:30 pm)100% (Jul 9, 9:00 am)29.80 "Hg (Jul 9, 9:00 am)
Low70 °F (Jul 10, 1:30 am)46% (Jul 8, 2:30 pm)29.42 "Hg (Jul 19, 1:30 pm)
Average80 °F81%29.64 "Hg
* Reported Jul 7 6:00 pm — Jul 22 6:30 pm, Pudong. Weather by CustomWeather, © 2019

Note: Actual official high and low records may vary slightly from our data, if they occured in-between our weather recording intervals... More about our weather records

Advertising

Pudong Weather History for the Previous 24 Hours

Scroll right to see more
 ConditionsComfort  
Time TempWeatherWind HumidityBarometerVisibility
6:30 pm
Mon, Jul 22
91 °FSunny.13 mph67%29.56 "Hg10 mi
6:00 pm91 °FPassing clouds.13 mph67%29.56 "HgN/A
5:30 pm93 °FPassing clouds.13 mph63%29.56 "HgN/A
5:00 pm93 °FPassing clouds.10 mph63%29.53 "HgN/A
4:30 pm95 °FPassing clouds.10 mph56%29.53 "HgN/A
4:00 pm97 °FScattered clouds.10 mph56%29.56 "HgN/A
3:30 pm95 °FScattered clouds.10 mph60%29.56 "HgN/A
3:00 pm95 °FPassing clouds.10 mph60%29.56 "HgN/A
2:30 pm95 °FPassing clouds.13 mph60%29.56 "HgN/A
2:00 pm93 °FScattered clouds.10 mph63%29.56 "HgN/A
1:30 pm95 °FScattered clouds.10 mph60%29.59 "HgN/A
1:00 pm95 °FPartly sunny.8 mph60%29.59 "HgN/A
12:30 pm93 °FPartly sunny.8 mph63%29.62 "HgN/A
12:00 pm93 °FPartly sunny.8 mph63%29.62 "HgN/A
11:30 am93 °FPartly sunny.6 mph63%29.62 "HgN/A
11:00 am93 °FPartly sunny.3 mph63%29.62 "HgN/A
10:30 am91 °FPartly sunny.3 mph67%29.65 "HgN/A
10:00 am91 °FPartly sunny.3 mph67%29.65 "HgN/A
9:30 am90 °FPartly sunny.3 mph71%29.65 "HgN/A
9:00 am90 °FScattered clouds.3 mph71%29.65 "HgN/A
8:30 am88 °FPartly sunny.6 mph75%29.65 "HgN/A
8:00 am86 °FPartly sunny.8 mph79%29.65 "HgN/A
7:30 am86 °FPartly sunny.8 mph79%29.62 "HgN/A
7:00 am84 °FPartly sunny.8 mph84%29.65 "HgN/A
6:30 am84 °FPartly sunny.6 mph84%29.65 "Hg4 mi
6:00 am82 °FScattered clouds.6 mph89%29.65 "Hg5 mi
5:30 am82 °FScattered clouds.6 mph89%29.62 "Hg5 mi
5:00 am82 °FPassing clouds.6 mph89%29.62 "Hg5 mi
4:30 am82 °FPassing clouds.3 mph89%29.62 "Hg4 mi
4:00 am82 °FPassing clouds.6 mph89%29.62 "Hg4 mi
3:30 am82 °FPassing clouds.6 mph89%29.62 "HgN/A
3:00 am82 °FPassing clouds.3 mph89%29.62 "HgN/A
2:30 am82 °FPassing clouds.6 mph89%29.62 "HgN/A
2:00 am82 °FPassing clouds.3 mph89%29.62 "HgN/A
1:30 am84 °FPassing clouds.3 mph84%29.65 "HgN/A
1:00 am84 °FPassing clouds.6 mph84%29.65 "HgN/A
12:30 am82 °FPassing clouds.3 mph89%29.65 "HgN/A
12:00 am82 °FPassing clouds.3 mph89%29.65 "HgN/A
11:30 pm
Sun, Jul 21
84 °FClear.6 mph84%29.65 "Hg10 mi
11:00 pm84 °FClear.6 mph84%29.68 "Hg10 mi
10:30 pm84 °FPassing clouds.3 mph84%29.68 "HgN/A
9:30 pm86 °FPassing clouds.6 mph75%29.65 "HgN/A
9:00 pm86 °FPassing clouds.6 mph75%29.65 "HgN/A
8:30 pm86 °FPassing clouds.8 mph75%29.65 "HgN/A
8:00 pm86 °FPassing clouds.10 mph79%29.65 "HgN/A
7:30 pm88 °FPassing clouds.8 mph75%29.65 "HgN/A
7:00 pm90 °FClear.8 mph67%29.62 "Hg10 mi
Weather by CustomWeather, © 2019

See weather overview